Location: Chillicothe
(39.7950°N, 93.5520°W)
Time: 18:28:52
(UTC-05:00)

deb Explorer IX - Visible Passes

Search period start: 14 October 2019 00:00
Search period end: 24 October 2019 00:00
Orbit: 544 x 1107 km, 38.8° (Epoch: 14 October)

Date Brightness Start Highest point End Pass type
(mag) Time Alt. Az. Time Alt. Az. Time Alt. Az.
14 Oct ? 18:53:15 10° W 19:00:09 84° S 19:07:32 10° E visible
14 Oct ? 20:40:34 10° W 20:47:39 62° SSW 20:49:35 47° SE visible
14 Oct ? 22:28:37 10° W 22:30:58 19° WSW 22:30:58 19° WSW visible
15 Oct ? 20:18:37 10° W 20:25:36 61° SSW 20:28:54 34° SE visible
15 Oct ? 22:06:38 10° W 22:10:17 23° WSW 22:10:17 23° WSW visible
16 Oct ? 19:56:41 10° W 20:03:34 60° SSW 20:08:18 23° SE visible
16 Oct ? 21:44:39 10° W 21:49:41 26° SW 21:49:41 26° SW visible
17 Oct ? 19:34:46 10° W 19:41:32 59° SSW 19:47:47 14° SE visible
17 Oct ? 21:22:43 10° W 21:28:26 26° SW 21:29:11 25° SSW visible
18 Oct ? 19:12:52 10° W 19:19:30 58° SSW 19:26:39 10° ESE visible
18 Oct ? 21:00:47 10° W 21:06:23 25° SW 21:08:48 21° S visible
19 Oct ? 18:51:00 10° W 18:57:28 57° SSW 19:04:34 10° SE visible
19 Oct ? 20:38:53 10° W 20:44:21 24° SW 20:48:34 15° S visible
20 Oct ? 20:17:00 10° W 20:22:20 24° SW 20:27:53 10° SSE visible
21 Oct ? 19:55:10 10° W 20:00:19 23° SW 20:05:44 10° SSE visible
22 Oct ? 19:33:21 10° W 19:38:18 22° SW 19:43:34 10° SSE visible
23 Oct ? 19:11:33 10° W 19:16:18 21° SW 19:21:23 10° SSE visible
